This demonstration page uses our WeatherBlox Daily Observations layout. Learn more.

Left ArrowRight Arrow

34.74481, -87.66753

Hourly Observations for March 15, 2021

Temp ( °F °C ) Dew Point ( °F °C ) Humidity (%) Winds ( mph kmh ) Pressure ( in mb ) Visibility ( mi km ) Precip ( " mm )
12:53 am 00:53 Partly Cloudy 66 18.9 51 10.6 59 59 ESE 5 7 29.96 1015 10 16 0.00 0.00
1:53 am 01:53 Cloudy 65 18.3 52 11.1 63 63 E 6 9 29.97 1015 10 16 0.00 0.00
2:53 am 02:53 Cloudy 67 19.4 52 11.1 59 59 ESE 9 15 29.97 1015 10 16 0.00 0.00
3:53 am 03:53 Cloudy 66 18.9 52 11.1 61 61 ESE 8 13 29.96 1014 10 16 0.00 0.00
4:53 am 04:53 Cloudy 66 18.9 52 11.1 61 61 ESE 9 15 29.95 1014 10 16 0.00 0.00
5:53 am 05:53 Cloudy 66 18.9 53 11.7 63 63 SE 7 11 29.94 1014 10 16 0.00 0.00
6:23 am 06:23 Cloudy 66 18.9 54 12.2 65 65 SE 7 11 29.96 1015 10 16 0.00 0.00
6:53 am 06:53 Cloudy with Light Rain 65 18.3 55 12.8 70 70 SSE 10 17 29.96 1014 4 6 0.00 0.00
7:11 am 07:11 Cloudy with Light Rain 64 17.8 56 13.3 75 75 SE 12 19 29.96 1015 4 6 0.01 0.25
7:27 am 07:27 Cloudy 63 17.2 57 13.9 81 81 SE 13 20 29.95 1014 7 11 0.01 0.25
7:51 am 07:51 Cloudy 64 18 57 14 78 78 SE 14 22 29.96 1015 8 13 0.01 0.25
7:53 am 07:53 Cloudy 64 17.8 58 14.4 81 81 SSE 14 22 29.96 1015 8 13 0.01 0.25
8:20 am 08:20 Cloudy 64 17.8 59 15 84 84 SE 14 22 29.95 1014 9 14 0.00 0.00
8:53 am 08:53 Cloudy 65 18.3 59 15 81 81 SSE 14 22 29.93 1014 10 16 0.00 0.00
9:53 am 09:53 Cloudy 66 18.9 60 15.6 81 81 SSE 10 17 29.96 1014 9 14 0.00 0.00
10:53 am 10:53 Cloudy 68 20 60 15.6 76 76 SSE 15 24 29.93 1014 9 14 0.00 0.00
11:28 am 11:28 Cloudy with Thunderstorms 67 19.4 60 15.6 79 79 SSE 14 22 29.94 1014 5 8 0.02 0.51
11:39 am 11:39 Cloudy with Rain 67 19.4 61 16.1 81 81 S 13 20 29.94 1014 3 4 0.03 0.76
11:53 am 11:53 Cloudy with Light Rain 67 19.4 61 16.1 81 81 S 12 19 29.95 1014 4 6 0.04 1.02
11:59 am 11:59 Cloudy with Rain 67 19.4 61 16.1 81 81 W 15 24 29.96 1015 2 3 0.04 1.02
12:12 pm 12:12 Cloudy with Light Rain 65 18.3 60 15.6 84 84 W 8 13 29.95 1014 4 6 0.10 2.54
12:14 pm 12:14 Cloudy with Light Rain 65 18.3 60 15.6 84 84 WNW 8 13 29.95 1014 5 8 0.10 2.54
12:39 pm 12:39 Cloudy with Rain 65 18.3 60 15.6 84 84 W 5 7 29.94 1014 3 4 0.14 3.56
12:43 pm 12:43 Cloudy with Heavy Rain 65 18.3 60 15.6 84 84 E 5 7 29.94 1014 1 2 0.18 4.57
12:53 pm 12:53 Cloudy with Light Rain 65 18.3 61 16.1 87 87 Calm 29.93 1014 4 6 0.19 4.83
1:09 pm 13:09 Cloudy with Heavy Rain 65 18.3 60 15.6 84 84 VRB 3 6 29.93 1014 2 3 0.04 1.02
1:16 pm 13:16 Cloudy with Rain 65 18.3 60 15.6 84 84 E 9 15 29.91 1013 2 3 0.05 1.27
1:21 pm 13:21 Cloudy with Light Rain 66 18.9 60 15.6 81 81 E 6 9 29.91 1013 3 5 0.05 1.27
1:32 pm 13:32 Cloudy 66 18.9 62 16.7 87 87 SE 6 9 29.92 1013 10 16 0.05 1.27
1:49 pm 13:49 Cloudy 68 20 61 16 78 78 S 6 9 29.92 1013 10 16 0.05 1.27
1:53 pm 13:53 Cloudy 68 20 62 16.7 81 81 SSW 7 11 29.91 1013 10 16 0.05 1.27
2:18 pm 14:18 Cloudy 71 21.7 63 17.2 76 76 SSW 9 15 29.89 1012 10 16 0.00 0.00
2:31 pm 14:31 Mostly Cloudy 70 21.1 62 16.7 76 76 S 12 19 29.90 1012 10 16 0.00 0.00
2:53 pm 14:53 Cloudy 73 22.8 63 17.2 71 71 SSW 8 13 29.88 1012 10 16 0.00 0.00
3:40 pm 15:40 Partly Cloudy 77 25 61 16.1 58 58 SW 15 24 29.87 1011 10 16 0.00 0.00
3:53 pm 15:53 Mostly Sunny 77 25 60 15.6 56 56 WSW 16 26 29.87 1012 10 16 0.00 0.00
4:53 pm 16:53 Sunny 78 25.6 55 12.8 45 45 WSW 13 20 29.86 1011 10 16 0.00 0.00
5:53 pm 17:53 Sunny 78 25.6 51 10.6 39 39 WSW 8 13 29.87 1011 10 16 0.00 0.00
6:53 pm 18:53 Mostly Sunny 73 22.8 50 10 44 44 WSW 7 11 29.88 1012 10 16 0.00 0.00
7:53 pm 19:53 Clear 66 18.9 52 11.1 61 61 SSE 5 7 29.90 1012 10 16 0.00 0.00
8:53 pm 20:53 Clear 67 19.4 55 12.8 66 66 S 6 9 29.91 1013 10 16 0.00 0.00
9:53 pm 21:53 Clear 67 19.4 58 14.4 73 73 S 6 9 29.92 1013 10 16 0.00 0.00
10:53 pm 22:53 Clear 64 17.8 57 13.9 78 78 S 3 6 29.93 1014 10 16 0.00 0.00
11:53 pm 23:53 Mostly Cloudy 62 16.7 57 13.9 84 84 SSE 3 6 29.92 1013 10 16 0.00 0.00

Powered by AerisWeather